General Aviation Weather

Text Reports

Enter one or more of the following location identifiers separated by a space:

Zip Code, Four-Character ICAO or Three-Character IATA airport codes.

METAR - Aviation Routine Weather Report
KMTO - Mattoon, Illinois
Updated at 12:53 AM GMT on March 02, 2015 (6:53 PM CST):
METAR KMTO 020053Z AUTO 32004KT 9SM OVC013 M04/M07 A3034 RMK AO2 SLP285 T10441067
TAF - Terminal Area Forecast
KMTO - Mattoon, Illinois
Updated at 12:53 AM GMT on March 02, 2015 (6:53 PM CST):
No TAF is currently available for this location.
Decoded:
No decoded TAF is available.
PIREP - Pilot Weather Report
KMTO - Mattoon, Illinois
Updated at 12:53 AM GMT on March 02, 2015 (6:53 PM CST):
No PIREP is currently available for this location.
AIRMET - Airmens Meteorological Information
KMTO - Mattoon, Illinois
Updated at 12:53 AM GMT on March 02, 2015 (6:53 PM CST):
No AIRMET is currently available for this location.
SIGMET - Significant Meteorological Information
KMTO - Mattoon, Illinois
Updated at 12:53 AM GMT on March 02, 2015 (6:53 PM CST):
No SIGMET is currently available for this location.
NOTAM - Notice to Airmen
KMTO - Mattoon, Illinois
Updated at 12:53 AM GMT on March 02, 2015 (6:53 PM CST):
No NOTAM is currently available for this location.
Forecast Area
KMTO - Mattoon, Illinois
Updated at 12:53 AM GMT on March 02, 2015 (6:53 PM CST):
No NOTAM is currently available for this location.
Aviation Weather Maps